GW5072 Weather Reports


time (UTC)temp
C
wind
direction
speed
KPH
gust
KPH
rain 1hr
cm
rain 24hr
cm
rain mn
cm
humidity
%
barometer
mb
20260503032509 14 324 0.0 0.0 0.00 0.03 0.03 89 1020.7
20260503032006 14 325 0.0 0.0 0.00 0.03 0.03 89 1020.6
20260503031523 14 324 0.0 0.0 0.00 0.03 0.03 89 1020.5
20260503031004 14 325 0.0 0.0 0.00 0.03 0.03 88 1020.5
20260503030511 14 325 0.0 0.0 0.00 0.03 0.03 88 1020.6
20260503030019 15 324 0.0 0.0 0.00 0.03 0.03 87 1020.5
20260503025506 15 324 0.0 0.0 0.00 0.03 0.03 87 1020.4
20260503025008 15 325 0.0 0.0 0.00 0.03 0.03 87 1020.4
20260503024520 15 324 0.0 0.0 0.00 0.03 0.03 86 1020.6
20260503024003 15 324 0.0 0.0 0.00 0.03 0.03 86 1020.6
20260503023510 15 324 0.0 0.0 0.00 0.03 0.03 85 1020.6
20260503023019 15 324 0.0 0.0 0.00 0.03 0.03 85 1020.4
20260503022507 15 324 0.0 0.0 0.00 0.03 0.03 85 1020.3
20260503022015 15 325 0.0 0.0 0.00 0.03 0.03 84 1020.3
20260503021514 15 324 0.0 0.0 0.00 0.03 0.03 84 1020.2
20260503021008 16 324 0.0 0.0 0.00 0.03 0.03 83 1020.3
20260503020509 16 324 0.0 0.0 0.00 0.03 0.03 83 1020.3
20260503020010 16 324 0.0 0.0 0.00 0.03 0.03 83 1020.1
20260503015509 16 324 0.0 0.0 0.00 0.03 0.03 82 1020.0
20260503015005 16 324 0.0 0.0 0.00 0.03 0.03 80 1020.0
20260503014527 16 325 0.0 0.0 0.00 0.03 0.03 79 1020.0
20260503014008 17 324 0.0 0.0 0.00 0.03 0.03 78 1019.9
20260503013505 17 324 0.0 0.0 0.00 0.03 0.03 75 1019.9
20260503013034 17 324 0.0 0.0 0.00 0.03 0.03 74 1019.8
20260503012507 17 324 0.0 0.0 0.00 0.03 0.03 73 1019.8
20260503012014 18 324 0.0 0.0 0.00 0.03 0.03 73 1019.7
20260503011529 18 324 0.0 0.0 0.00 0.05 0.03 72 1019.5
20260503011004 18 324 0.0 0.0 0.00 0.05 0.03 72 1019.6
20260503010507 19 324 0.0 0.0 0.00 0.05 0.03 69 1019.6
20260503010023 20 324 0.0 0.0 0.00 0.05 0.03 68 1019.5
20260503005503 20 324 0.0 0.0 0.00 0.05 0.03 67 1019.4
20260503005008 20 324 0.0 0.0 0.00 0.05 0.03 68 1019.3
20260503004517 21 324 0.0 0.0 0.00 0.05 0.03 65 1019.3
20260503004011 21 324 0.0 1.6 0.00 0.08 0.03 62 1019.2
20260503003508 21 324 0.0 1.6 0.00 0.10 0.03 62 1019.1
20260503003018 21 356 0.0 1.6 0.00 0.13 0.03 60 1019.1
20260503002515 21 356 0.0 6.4 0.00 0.15 0.03 59 1019.1
20260503002008 22 306 0.0 6.4 0.00 0.18 0.03 56 1019.1
20260503001516 22 338 0.0 4.8 0.00 0.18 0.03 55 1019.1
20260503001017 22 321 0.0 8.0 0.00 0.20 0.03 55 1019.0
20260503000506 22 39 0.0 8.0 0.00 0.23 0.03 54 1018.9
20260503000036 22 33 0.0 4.8 0.00 0.23 0.03 57 1018.9
20260502235507 22 354 0.0 1.6 0.00 0.30 0.03 57 1018.9
20260502235006 22 115 0.0 1.6 0.00 0.33 0.03 56 1018.8
20260502234528 22 117 0.0 4.8 0.00 0.36 0.03 54 1018.8
20260502234011 22 92 0.0 4.8 0.00 0.41 0.03 55 1018.7
20260502233512 23 113 0.0 6.4 0.00 0.43 0.03 53 1018.7
20260502233024 23 148 0.0 6.4 0.00 0.43 0.03 53 1018.8
20260502232513 23 50 0.0 3.2 0.00 0.46 0.03 51 1018.8
20260502232008 23 295 0.0 4.8 0.00 0.46 0.03 53 1018.8
20260502231523 23 328 0.0 4.8 0.00 0.48 0.03 53 1018.7
20260502231008 23 314 1.6 4.8 0.00 0.51 0.03 51 1018.7
20260502230511 23 96 0.0 3.2 0.00 0.51 0.03 50 1018.7
20260502230024 23 39 0.0 3.2 0.00 0.53 0.03 51 1018.8
20260502225507 23 323 0.0 3.2 0.00 0.58 0.03 52 1018.8
20260502225006 23 125 1.6 3.2 0.00 0.69 0.03 50 1018.8
20260502224523 24 72 0.0 3.2 0.00 0.74 0.03 49 1018.8
20260502224010 24 60 0.0 3.2 0.00 0.76 0.03 50 1018.8
20260502223511 24 78 1.6 3.2 0.00 0.79 0.03 49 1018.8
20260502223020 24 75 0.0 1.6 0.00 0.79 0.03 53 1018.8
20260502222507 24 88 0.0 1.6 0.00 0.79 0.03 51 1018.8
20260502222006 24 67 0.0 6.4 0.00 0.79 0.03 52 1019.0
20260502221533 24 343 1.6 6.4 0.00 0.79 0.03 49 1018.9
20260502221006 24 88 0.0 3.2 0.00 0.79 0.03 51 1019.0
20260502220507 24 93 0.0 4.8 0.00 0.79 0.03 50 1018.9
20260502220026 24 51 1.6 8.0 0.00 0.79 0.03 51 1019.1
20260502215508 24 98 1.6 12.9 0.00 0.79 0.03 49 1019.0
20260502215008 25 324 3.2 12.9 0.00 0.79 0.03 48 1018.9
20260502214527 24 229 0.0 4.8 0.00 0.79 0.03 49 1018.9
20260502214007 24 77 0.0 4.8 0.00 0.84 0.03 50 1019.1
20260502213509 24 330 1.6 4.8 0.00 0.86 0.03 48 1019.1
20260502213027 25 214 0.0 3.2 0.00 0.91 0.03 49 1019.2
20260502212507 25 115 0.0 4.8 0.00 0.99 0.03 49 1019.1
20260502212010 24 10 1.6 4.8 0.00 1.04 0.03 48 1019.2
20260502211526 24 319 1.6 4.8 0.00 1.09 0.03 51 1019.2
20260502211008 24 95 0.0 3.2 0.00 1.14 0.03 49 1019.2
20260502210502 24 57 0.0 3.2 0.00 1.19 0.03 51 1019.3
20260502210024 24 61 0.0 3.2 0.00 1.19 0.03 49 1019.4
20260502205509 25 72 0.0 3.2 0.00 1.22 0.03 54 1019.4
20260502205007 25 302 0.0 8.0 0.00 1.22 0.03 50 1019.5
20260502204525 25 291 1.6 8.0 0.00 1.27 0.03 52 1019.5
20260502204006 25 320 1.6 6.4 0.00 1.27 0.03 50 1019.6
20260502203503 25 23 1.6 6.4 0.00 1.27 0.03 51 1019.6
20260502203021 24 296 1.6 8.0 0.00 1.27 0.03 50 1019.6
20260502202503 24 313 1.6 8.0 0.00 1.30 0.03 49 1019.7
20260502202011 24 291 0.0 8.0 0.00 1.30 0.03 54 1019.6
20260502201519 23 51 1.6 8.0 0.00 1.30 0.03 54 1019.7
20260502201003 23 323 0.0 8.0 0.00 1.32 0.03 51 1019.7
20260502200512 23 276 1.6 11.3 0.00 1.32 0.03 51 1019.8
20260502200014 23 319 4.8 11.3 0.00 1.37 0.03 48 1019.8
20260502195504 23 79 0.0 3.2 0.00 1.40 0.03 51 1019.9
20260502195004 23 248 0.0 3.2 0.00 1.42 0.03 51 1019.9
20260502194510 23 146 0.0 3.2 0.00 1.45 0.03 52 1019.9
20260502194007 23 39 1.6 11.3 0.00 1.47 0.03 51 1020.0
20260502193508 23 59 0.0 11.3 0.00 1.52 0.03 51 1020.1
20260502193009 23 326 1.6 9.7 0.00 1.55 0.03 50 1020.2
20260502192509 23 328 1.6 8.0 0.00 1.57 0.03 51 1020.2
20260502192007 24 316 3.2 8.0 0.00 1.60 0.03 47 1020.3
20260502191531 23 116 1.6 8.0 0.00 1.60 0.03 50 1020.4
20260502191012 23 141 1.6 8.0 0.00 1.60 0.03 55 1020.4
20260502190504 23 93 1.6 8.0 0.00 1.60 0.03 51 1020.5
20260502190028 23 287 1.6 8.0 0.00 1.60 0.03 54 1020.5
20260502185505 23 72 0.0 9.7 0.00 1.63 0.03 50 1020.5
20260502185002 23 161 1.6 9.7 0.00 1.63 0.03 51 1020.6
20260502184523 23 305 1.6 6.4 0.00 1.63 0.03 54 1020.8
20260502184004 23 302 0.0 6.4 0.00 1.63 0.03 55 1020.8
20260502183508 23 66 1.6 6.4 0.00 1.63 0.03 52 1020.8
20260502183021 23 116 1.6 6.4 0.00 1.63 0.03 57 1020.9
20260502182506 23 72 1.6 6.4 0.00 1.63 0.03 53 1020.9
20260502182010 23 103 1.6 12.9 0.00 1.63 0.03 52 1021.1
20260502181518 22 223 4.8 12.9 0.00 1.63 0.03 53 1021.2
20260502181004 22 77 1.6 11.3 0.00 1.63 0.03 53 1021.2
20260502180508 22 41 3.2 11.3 0.00 1.63 0.03 55 1021.2
20260502170507 20 60 0.0 6.4 0.00 1.75 0.03 64 1021.6
20260502164004 18 218 0.0 6.4 0.00 1.78 0.03 67 1021.6
20260502163508 18 120 1.6 6.4 0.00 1.80 0.03 69 1021.6
20260502163034 18 263 0.0 6.4 0.00 1.80 0.03 70 1021.5
20260502162505 18 172 0.0 3.2 0.00 1.83 0.03 71 1021.5
20260502162010 18 288 0.0 6.4 0.00 1.85 0.03 71 1021.6
20260502161520 18 300 0.0 8.0 0.00 1.88 0.03 73 1021.6
20260502161012 17 335 1.6 8.0 0.00 1.93 0.03 73 1021.5
20260502160509 17 28 0.0 8.0 0.00 1.98 0.03 78 1021.5
20260502152007 16 321 0.0 3.2 0.00 2.95 0.03 84 1021.2
20260502151527 16 13 0.0 6.4 0.00 2.95 0.03 85 1021.3
20260502151006 15 122 0.0 6.4 0.00 2.95 0.03 84 1021.2
20260502150510 15 1 0.0 4.8 0.03 2.95 0.03 85 1021.3
20260502130512 11 319 1.6 8.0 0.00 4.37 0.00 96 1020.1
20260502123514 10 319 0.0 4.8 0.00 5.23 0.00 97 1019.8
20260502123044 10 329 0.0 3.2 0.00 5.31 0.00 97 1019.6
20260502122512 10 323 0.0 3.2 0.00 5.46 0.00 97 1019.5
20260502122018 10 333 0.0 1.6 0.00 5.74 0.00 97 1019.5
20260502121522 10 333 0.0 1.6 0.00 5.84 0.00 97 1019.5
20260502121004 10 333 0.0 1.6 0.00 5.89 0.00 97 1019.4
20260502120504 10 333 0.0 1.6 0.00 6.05 0.00 97 1019.4
20260502115508 10 328 0.0 1.6 0.00 6.20 0.00 96 1019.3
20260502115011 10 328 0.0 1.6 0.00 6.30 0.00 96 1019.2
20260502114515 10 328 0.0 1.6 0.00 6.45 0.00 96 1019.2
20260502114003 10 328 0.0 1.6 0.00 6.86 0.00 96 1019.2
20260502113507 10 328 0.0 1.6 0.00 6.91 0.00 96 1019.1
20260502113014 10 349 0.0 1.6 0.00 6.93 0.00 96 1019.1
20260502112507 10 347 0.0 1.6 0.00 6.96 0.00 96 1019.1
20260502112007 10 347 0.0 1.6 0.00 6.99 0.00 96 1018.8
20260502111511 10 347 0.0 1.6 0.00 7.04 0.00 96 1018.8
20260502111010 10 347 0.0 1.6 0.00 7.11 0.00 96 1018.7
20260502110504 10 349 0.0 1.6 0.00 7.16 0.00 96 1018.6
20260502110009 10 318 0.0 0.0 0.00 7.19 0.00 96 1018.5
20260502105506 10 318 0.0 0.0 0.00 7.26 0.00 96 1018.5
20260502105005 10 318 0.0 1.6 0.00 7.39 0.00 96 1018.5
20260502104525 10 317 0.0 1.6 0.00 7.47 0.00 96 1018.5
20260502104005 10 327 0.0 1.6 0.00 7.57 0.00 96 1018.4
20260502103504 10 321 0.0 3.2 0.00 7.59 0.00 96 1018.4
20260502103023 10 321 0.0 4.8 0.00 7.65 0.00 96 1018.4
20260502102507 10 316 0.0 4.8 0.00 7.67 0.00 96 1018.3
20260502102005 10 300 0.0 3.2 0.00 7.67 0.00 96 1018.2
20260502101519 10 348 0.0 3.2 0.00 7.67 0.00 96 1018.1
20260502101006 10 316 0.0 3.2 0.00 7.67 0.00 96 1018.1
20260502100508 10 328 0.0 4.8 0.00 7.70 0.00 96 1018.1
20260502091512 10 300 0.0 4.8 0.00 8.31 0.00 97 1017.3
20260502091004 10 222 0.0 1.6 0.00 8.33 0.00 96 1017.2
20260502090506 10 219 0.0 1.6 0.00 8.36 0.00 96 1017.0
20260502071514 11 156 0.0 0.0 0.00 9.37 0.00 97 1016.6
20260502071006 11 156 0.0 0.0 0.00 9.37 0.00 97 1016.7
20260502070507 11 156 0.0 0.0 0.00 9.37 0.00 97 1016.9
20260502070012 11 156 0.0 0.0 0.00 9.37 0.00 97 1016.8
20260502065508 11 155 0.0 0.0 0.00 9.37 0.00 97 1016.9
20260502065011 11 156 0.0 0.0 0.00 9.37 0.00 97 1016.9
20260502064508 11 194 0.0 0.0 0.00 9.37 0.00 97 1016.8
20260502064007 11 195 0.0 1.6 0.00 9.37 0.00 97 1016.7
20260502063504 11 184 0.0 1.6 0.00 9.37 0.00 96 1016.6
20260502063023 11 73 0.0 1.6 0.00 9.37 0.00 96 1016.6
20260502062506 11 115 0.0 1.6 0.00 9.40 0.00 96 1016.5
20260502062001 11 223 0.0 1.6 0.00 9.40 0.00 97 1016.5
20260502061523 11 224 0.0 1.6 0.00 9.40 0.00 96 1016.5
20260502061006 11 100 0.0 1.6 0.00 9.40 0.00 96 1016.6
20260502060506 11 44 0.0 1.6 0.00 9.40 0.00 96 1016.5
20260502060022 11 101 0.0 3.2 0.00 9.42 0.00 96 1016.5
20260502055503 11 101 0.0 3.2 0.00 9.45 0.00 96 1016.5
20260502055008 11 342 0.0 6.4 0.00 9.45 0.00 96 1016.7
20260502054522 11 258 0.0 6.4 0.00 9.45 0.00 96 1016.7
20260502054005 11 59 0.0 3.2 0.00 9.45 0.00 96 1016.6
20260502053507 11 51 0.0 3.2 0.00 9.45 0.00 96 1016.5
20260502053018 12 73 0.0 3.2 0.00 9.45 0.00 96 1016.6
20260502052510 12 91 0.0 1.6 0.00 9.45 0.00 96 1016.7
20260502052007 12 6 0.0 1.6 0.00 9.45 0.00 96 1016.6
20260502051520 12 82 0.0 3.2 0.00 9.45 0.00 96 1016.6
20260502051011 12 72 0.0 6.4 0.00 9.45 0.00 97 1016.5
20260502050507 12 210 0.0 6.4 0.00 9.45 0.00 96 1016.5
20260502050027 12 210 0.0 9.7 0.00 9.45 0.00 97 1016.6
20260502045507 12 255 0.0 9.7 0.00 9.45 9.45 96 1016.5
20260502045007 12 274 0.0 3.2 0.00 9.45 9.45 96 1016.4
20260502044528 12 313 0.0 3.2 0.00 9.45 9.45 96 1016.4
20260502044007 12 108 0.0 3.2 0.00 9.45 9.45 96 1016.3
20260502043505 12 236 0.0 4.8 0.00 9.45 9.45 96 1016.3
20260502043026 12 249 0.0 4.8 0.00 9.45 9.45 96 1016.3
20260502042509 12 77 0.0 4.8 0.00 9.45 9.45 96 1016.3
20260502042015 12 35 0.0 4.8 0.00 9.45 9.45 96 1016.3
20260502041528 12 44 0.0 4.8 0.00 9.45 9.45 96 1016.3
20260502041003 12 250 0.0 4.8 0.00 9.45 9.45 97 1016.3
20260502040506 12 42 0.0 3.2 0.00 9.45 9.45 97 1016.3
20260502040022 12 256 0.0 6.4 0.00 9.45 9.45 97 1016.4
20260502035503 12 234 0.0 6.4 0.00 9.45 9.45 97 1016.3
20260502035010 12 166 0.0 3.2 0.00 9.45 9.45 97 1016.4
20260502034522 12 222 0.0 6.4 0.00 9.45 9.45 97 1016.4
20260502034008 12 319 0.0 6.4 0.00 9.45 9.45 97 1016.4
20260502033508 12 44 0.0 4.8 0.00 9.45 9.45 97 1016.4
20260502033019 12 326 0.0 12.9 0.00 9.45 9.45 97 1016.4